Bakersfield, CA

4:44 AM PDT on September 20, 2017 (GMT -0700)
Meadows

Weather History for KBFL - September, 2013

Change the Weather History Date:

Friday, September 20, 2013

  Actual Average Record
Temperature  
Mean Temperature 79 °F 76 °F  
Max Temperature 95 °F 89 °F 104 °F (1899)
Min Temperature 63 °F 63 °F 38 °F (1908)
Degree Days  
Heating Degree Days 0    
Month to date heating degree days 0  
Since 1 July heating degree days 0  
Cooling Degree Days 14    
Month to date cooling degree days 326  
Year to date cooling degree days 2440  
Growing Degree Days 29 (Base 50)    
Moisture  
Dew Point 45 °F    
Average Humidity 33    
Maximum Humidity 48    
Minimum Humidity 17    
Precipitation  
Precipitation 0.00 in 0.00 in 0.16 in (1939)
Month to date precipitation T 0.04  
Year to date precipitation 2.36 4.47  
Since 1 July precipitation T  
Snow  
Snow 0.00 in - - ()
Month to date snowfall 0.0  
Since 1 July snowfall 0.0  
Since 1 September snowfall 0.0  
Snow Depth 0.00 in    
Sea Level Pressure  
Sea Level Pressure 29.74 in    
Wind  
Wind Speed 6 mph (NW)    
Max Wind Speed 17 mph    
Max Gust Speed 22 mph    
Visibility 10 miles    
Events      
T = Trace of Precipitation, MM = Missing Value Source: NWS Daily Summary

Daily Weather History Graph

Daily Weather History Graph

Search for Another Location

Airport or City:

Trip Planner

Search our weather history database for the weather conditions in past years. The results will help you decide how hot, cold, wet, or windy it might be!

Date:

Astronomy

Sep. 20, 2013 Rise Set
Actual Time 6:42 AM PDT 6:55 PM PDT
Civil Twilight 6:17 AM PDT 7:20 PM PDT
Nautical Twilight 5:47 AM PDT 7:50 PM PDT
Astronomical Twilight 5:17 AM PDT 8:20 PM PDT
Moon 7:37 PM PDT 7:58 AM PDT
Length of Visible Light 13h 03m
Length of Day
12h 12m
Full, 98% of the Moon is Illuminated
Sep 20
Full
Sep 26
Last Quarter
Oct 4
New
Oct 11
First Quarter
Oct 18
Full

Hourly Weather History & Observations

Time (PDT) Temp. Dew Point Humidity Pressure Visibility Wind Dir Wind Speed Gust Speed Precip Events Conditions
12:54 AM 73.0 °F 46.0 °F 38% 29.75 in 10.0 mi ENE 3.5 mph - N/A   Clear
1:54 AM 71.1 °F 48.9 °F 45% 29.75 in 10.0 mi Calm Calm - N/A   Clear
2:54 AM 72.0 °F 48.0 °F 43% 29.74 in 10.0 mi East 3.5 mph - N/A   Clear
3:54 AM 69.1 °F 46.0 °F 44% 29.74 in 10.0 mi Calm Calm - N/A   Clear
4:54 AM 69.1 °F 45.0 °F 42% 29.73 in 10.0 mi Calm Calm - N/A   Clear
5:54 AM 66.0 °F 44.1 °F 45% 29.73 in 10.0 mi NW 3.5 mph - N/A   Clear
6:54 AM 64.0 °F 44.1 °F 48% 29.75 in 6.0 mi NNW 3.5 mph - N/A   Haze
7:54 AM 69.1 °F 44.1 °F 40% 29.76 in 8.0 mi WNW 3.5 mph - N/A   Clear
8:54 AM 75.0 °F 46.9 °F 37% 29.76 in 10.0 mi Calm Calm - N/A   Clear
9:54 AM 80.1 °F 43.0 °F 27% 29.76 in 10.0 mi South 4.6 mph - N/A   Clear
10:54 AM 82.9 °F 46.0 °F 27% 29.76 in 10.0 mi Variable 4.6 mph - N/A   Clear
11:54 AM 88.0 °F 46.0 °F 23% 29.75 in 10.0 mi NW 9.2 mph - N/A   Clear
12:54 PM 90.0 °F 45.0 °F 21% 29.74 in 10.0 mi NW 5.8 mph - N/A   Clear
1:54 PM 91.0 °F 46.0 °F 21% 29.73 in 10.0 mi WNW 11.5 mph - N/A   Clear
2:54 PM 93.0 °F 44.1 °F 18% 29.71 in 10.0 mi NW 10.4 mph - N/A   Clear
3:54 PM 93.0 °F 42.1 °F 17% 29.70 in 10.0 mi NNW 13.8 mph 19.6 mph N/A   Clear
4:54 PM 93.0 °F 43.0 °F 18% 29.69 in 10.0 mi North 9.2 mph - N/A   Clear
5:54 PM 91.9 °F 44.1 °F 19% 29.70 in 10.0 mi NW 10.4 mph - N/A   Clear
6:54 PM 86.0 °F 48.0 °F 27% 29.70 in 10.0 mi NW 8.1 mph - N/A   Clear
7:54 PM 82.0 °F 37.0 °F 20% 29.73 in 10.0 mi NW 12.7 mph - N/A   Clear
8:54 PM 78.1 °F 43.0 °F 29% 29.76 in 10.0 mi NW 15.0 mph - N/A   Clear
9:54 PM 73.9 °F 44.1 °F 34% 29.78 in 10.0 mi NNW 8.1 mph - N/A   Clear
10:54 PM 71.1 °F 46.0 °F 41% 29.81 in 10.0 mi WNW 6.9 mph - N/A   Clear
11:54 PM 70.0 °F 46.0 °F 42% 29.83 in 10.0 mi NNW 3.5 mph - N/A   Clear